Location: Newark
(18.7969°S, 47.4789°E)
Time: 14:57:39
(UTC+00:00)

N. Korean satellite - Visible Passes

Search period start: 28 January 2020 00:00
Search period end: 07 February 2020 00:00
Orbit: 454 x 507 km, 97.2° (Epoch: 28 January)

Date Brightness Start Highest point End Pass type
(mag) Time Alt. Az. Time Alt. Az. Time Alt. Az.
28 Jan 8.9 01:36:30 10° NE 01:39:45 29° ESE 01:43:02 10° SSE visible
29 Jan 10.1 01:12:46 10° E 01:14:25 13° ESE 01:16:05 10° SE visible
31 Jan 7.5 01:52:55 10° NNE 01:56:33 54° ESE 02:00:13 10° S visible
01 Feb 9.4 01:28:15 10° NE 01:31:10 22° ESE 01:34:07 10° SSE visible
03 Feb 6.6 02:09:39 10° N 02:13:22 77° W 02:17:07 10° SSW visible
04 Feb 8.2 01:44:27 10° NNE 01:47:56 39° ESE 01:51:27 10° S visible
05 Feb 9.9 01:20:09 10° ENE 01:22:34 17° ESE 01:25:00 10° SE visible
